Weather History for KANE - May, 2014

Change the Weather History Date:

Tuesday, May 6, 2014

  Actual Average Record
Temperature  
Mean Temperature 57 °F -  
Max Temperature 66 °F 62 °F 84 °F (2000)
Min Temperature 48 °F 43 °F 37 °F (2006)
Degree Days  
Heating Degree Days 8    
Growing Degree Days 7 (Base 50)    
Moisture  
Dew Point 37 °F    
Average Humidity 47    
Maximum Humidity 66    
Minimum Humidity 32    
Precipitation  
Precipitation 0.00 in - - ()
Sea Level Pressure  
Sea Level Pressure 29.89 in    
Wind  
Wind Speed 10 mph (East)    
Max Wind Speed 17 mph    
Max Gust Speed 25 mph    
Visibility 10 miles    
Events      
Averages and records for this station are not official NWS values.
T = Trace of Precipitation, MM = Missing Value Source: NWS Daily Summary

Daily Weather History Graph

Daily Weather History Graph

Search for Another Location

Airport or City:

Trip Planner

Search our weather history database for the weather conditions in past years. The results will help you decide how hot, cold, wet, or windy it might be!

Date:

Astronomy

May. 06, 2014 Rise Set
Actual Time 5:54 AM CDT 8:25 PM CDT
Civil Twilight 5:21 AM CDT 8:58 PM CDT
Nautical Twilight 4:40 AM CDT 9:39 PM CDT
Astronomical Twilight 3:53 AM CDT 10:27 PM CDT
Moon 12:14 PM CDT (5/6) 1:41 AM CDT (5/6)
Length of Visible Light 15h 36m
Length of Day
14h 30m
Waxing Crescent, 46% of the Moon is Illuminated
May 6
Waxing Crescent
May 6
First Quarter
May 14
Full
May 21
Last Quarter
May 28
New

Hourly Weather History & Observations

Time (CDT) Temp. Dew Point Humidity Pressure Visibility Wind Dir Wind Speed Gust Speed Precip Events Conditions
12:15 AM 53.6 °F 35.6 °F 51% 29.96 in 10.0 mi East 5.8 mph - N/A   Clear
12:36 AM 53.6 °F 35.6 °F 51% 29.96 in 10.0 mi East 6.9 mph - N/A   Clear
12:55 AM 51.8 °F 37.4 °F 58% 29.96 in 10.0 mi ESE 5.8 mph - N/A   Clear
1:15 AM 51.8 °F 37.4 °F 58% 29.96 in 10.0 mi East 4.6 mph - N/A   Clear
1:36 AM 51.8 °F 37.4 °F 58% 29.96 in 10.0 mi ESE 3.5 mph - N/A   Clear
1:55 AM 51.8 °F 37.4 °F 58% 29.96 in 10.0 mi ESE 4.6 mph - N/A   Clear
2:15 AM 51.8 °F 37.4 °F 58% 29.96 in 10.0 mi East 5.8 mph - N/A   Clear
2:36 AM 50.0 °F 37.4 °F 62% 29.95 in 10.0 mi East 5.8 mph - N/A   Clear
6:55 AM 48.2 °F 37.4 °F 66% 29.96 in 10.0 mi ESE 8.1 mph - N/A   Clear
7:45 AM 51.8 °F 37.4 °F 58% 29.96 in 10.0 mi ESE 12.7 mph 17.3 mph N/A   Scattered Clouds
8:45 AM 53.6 °F 35.6 °F 51% 29.97 in 10.0 mi ESE 9.2 mph - N/A   Mostly Cloudy
9:45 AM 57.2 °F 35.6 °F 44% 29.98 in 10.0 mi ESE 11.5 mph - N/A   Mostly Cloudy
10:45 AM 60.8 °F 35.6 °F 39% 29.95 in 10.0 mi SE 13.8 mph 20.7 mph N/A   Mostly Cloudy
11:50 AM 60.8 °F 35.6 °F 39% 29.91 in 10.0 mi ESE 17.3 mph 25.3 mph N/A   Scattered Clouds
12:50 PM 62.6 °F 35.6 °F 37% 29.93 in 10.0 mi ESE 16.1 mph 20.7 mph N/A   Scattered Clouds
1:45 PM 64.4 °F 33.8 °F 32% 29.88 in 10.0 mi East 17.3 mph 25.3 mph N/A   Scattered Clouds
2:45 PM 64.4 °F 35.6 °F 34% 29.86 in 10.0 mi East 17.3 mph 25.3 mph N/A   Mostly Cloudy
3:45 PM 66.2 °F 35.6 °F 32% 29.83 in 10.0 mi ESE 15.0 mph 23.0 mph N/A   Overcast
4:45 PM 66.2 °F 35.6 °F 32% 29.82 in 10.0 mi East 13.8 mph 23.0 mph N/A   Overcast
5:45 PM 64.4 °F 37.4 °F 37% 29.80 in 10.0 mi East 13.8 mph 23.0 mph N/A   Overcast
6:45 PM 64.4 °F 37.4 °F 37% 29.81 in 10.0 mi East 13.8 mph 23.0 mph N/A   Overcast
7:45 PM 62.6 °F 39.2 °F 42% 29.81 in 10.0 mi East 15.0 mph - N/A   Overcast
8:45 PM 60.8 °F 37.4 °F 42% 29.81 in 10.0 mi East 17.3 mph 23.0 mph N/A   Overcast
9:15 PM 60.8 °F 39.2 °F 45% 29.83 in 10.0 mi East 13.8 mph - N/A   Clear
9:35 PM 60.8 °F 39.2 °F 45% 29.84 in 10.0 mi East 10.4 mph - N/A   Clear
9:45 PM 59.0 °F 39.2 °F 48% 29.84 in 10.0 mi East 10.4 mph 16.1 mph N/A   Overcast
9:55 PM 59.0 °F 39.2 °F 48% 29.84 in 10.0 mi East 10.4 mph - N/A   Clear
10:16 PM 59.0 °F 37.4 °F 45% 29.84 in 10.0 mi East 12.7 mph - N/A   Scattered Clouds
10:35 PM 59.0 °F 37.4 °F 45% 29.84 in 10.0 mi East 11.5 mph 16.1 mph N/A   Mostly Cloudy
10:55 PM 57.2 °F 39.2 °F 51% 29.84 in 10.0 mi ENE 12.7 mph - N/A   Overcast
11:16 PM 57.2 °F 37.4 °F 48% 29.82 in 10.0 mi East 12.7 mph 17.3 mph N/A   Scattered Clouds
11:35 PM 57.2 °F 37.4 °F 48% 29.82 in 10.0 mi East 12.7 mph 19.6 mph N/A   Clear
11:55 PM 57.2 °F 37.4 °F 48% 29.81 in 10.0 mi East 12.7 mph - N/A   Clear